EHI
0 0 0 0 0 0 0 0 0 0 0 0 0 0 0 0 0 0 0 0 1 3 4 3 3 5 6 7 6 3 1 0 0 0 0 0 0 0 0 0 0 0 0 0 0 0 0 0 0
0 0 0 0 0 0 0 0 0 0 0 0 0 0 0 0 0 0 0 0 0 2 2 2 2 4 6 6 4 1 0 0 0 0 0 0 0 0 0 0 0 0 0 0 0 0 0 0 0
1 0 0 0 0 0 0 0 0 0 0 0 0 0 0 1 1 0 0 0 0 1 1 1 1 2 5 5 2 0 0 0 0 0 0 0 0 0 0 0 0 0 0 0 0 0 0 0 0
2 1 0 0 0 0 0 0 0 0 0 0 0 0 3 7 6 2 0 0 1 1 1 0 0 1 3 3 1 0 0 0 0 0 0 0 0 0 0 0 0 0 0 0 0 0 0 0 0
2 1 0 0 0 0 0 0 0 0 0 0 0 3 10 16 12 5 2 1 2 2 1 0 0 0 1 1 0 0 0 0 0 0 0 0 0 0 0 0 0 0 0 0 0 0 0 0 0
1 0 0 0 0 0 0 0 0 0 0 0 0 7 22 26 17 7 4 5 5 3 1 0 0 0 0 0 0 0 0 0 0 0 0 0 0 0 0 0 0 0 0 0 0 0 0 0 0
0 0 0 0 0 0 0 0 0 0 0 0 0 9 26 32 20 10 9 9 7 4 2 0 0 0 0 0 0 0 0 0 0 0 0 0 0 0 0 0 0 0 0 0 0 0 0 0 0
0 0 0 0 0 0 0 0 0 0 0 0 0 7 20 26 21 19 20 17 12 6 2 0 0 0 0 0 0 0 0 0 0 0 0 0 0 0 0 0 0 0 0 0 0 0 0 0 0
0 0 0 0 0 0 0 0 0 0 0 0 1 5 10 14 17 22 24 22 16 9 3 1 0 0 0 0 0 0 0 0 0 0 0 0 0 0 0 0 0 0 0 0 0 0 0 0 0
0 0 0 0 0 0 0 0 0 0 0 0 1 4 5 7 11 14 15 16 12 7 4 3 2 0 0 0 0 0 0 0 0 0 0 0 0 0 0 0 0 0 0 0 0 0 0 0 0
0 0 0 0 0 0 0 0 0 0 0 0 1 2 3 4 7 7 7 8 6 4 4 4 3 1 0 0 0 0 0 0 0 0 0 0 0 0 0 0 0 0 0 0 0 0 0 0 0
0 0 0 0 0 0 0 0 0 0 0 0 0 1 1 2 4 5 6 6 5 4 3 3 2 2 1 1 1 0 0 0 0 0 0 0 0 0 0 0 0 0 0 0 0 0 0 0 0
0 0 0 0 0 0 0 0 0 0 0 0 0 0 0 0 1 3 5 5 5 5 4 3 2 2 3 4 4 1 0 0 0 0 0 0 0 0 0 0 0 0 0 0 0 0 0 0 0
0 0 0 0 0 0 0 0 0 0 0 1 1 1 1 0 0 1 4 5 5 5 5 4 2 2 4 5 5 2 0 0 0 0 0 0 0 0 0 0 0 0 0 0 0 0 0 0 0
0 0 0 0 0 0 0 0 0 0 1 2 2 2 3 2 0 1 4 5 4 4 4 3 2 2 2 4 3 1 0 0 0 0 0 0 0 0 0 0 0 0 0 0 0 0 0 0 0
0 0 0 0 0 0 0 0 0 0 1 2 3 3 4 4 1 1 2 3 3 2 2 2 3 2 2 3 2 1 0 0 0 0 0 0 0 0 0 0 0 0 0 0 0 0 0 0 0
0 0 0 0 0 0 0 0 0 0 0 1 2 3 3 3 2 0 0 2 3 3 2 2 2 2 3 4 3 1 0 0 0 0 0 0 0 0 0 0 0 0 0 0 0 0 0 0 0
0 0 0 0 0 0 0 0 0 0 0 0 1 1 1 1 1 0 1 2 4 4 4 3 3 4 6 7 5 1 0 0 0 0 0 0 0 0 0 0 0 0 0 0 0 0 0 0 0
0 0 0 0 0 0 0 0 0 0 0 0 0 0 0 0 0 0 1 3 6 6 5 5 5 7 10 10 6 1 0 0 0 0 0 0 0 0 0 0 0 0 0 0 0 0 0 0 0
0 0 0 0 0 0 0 0 0 0 0 0 0 0 0 0 0 0 0 2 5 7 7 6 6 9 12 11 5 1 0 0 0 0 0 0 0 0 0 0 0 0 0 0 0 0 0 0 0
0 0 0 0 0 0 0 0 0 0 0 0 0 0 0 0 0 0 1 2 3 5 6 5 6 9 10 8 5 1 0 0 0 0 0 0 0 0 0 0 0 0 0 0 0 0 0 0 0
0 0 0 0 0 0 0 0 0 0 0 0 0 0 0 0 0 0 1 2 2 2 3 4 5 7 9 7 5 2 1 0 0 0 0 0 0 0 0 0 0 0 0 0 0 0 0 0 0
0 0 0 0 0 0 0 0 0 0 0 0 0 0 0 0 0 0 0 1 1 1 1 2 4 6 7 7 5 3 2 1 0 0 0 0 0 0 0 0 0 0 0 0 0 0 0 0 0
0 0 0 0 0 0 0 0 0 0 0 0 0 0 0 0 0 0 0 0 0 0 1 1 2 4 5 6 5 4 3 2 2 1 1 2 2 1 1 0 0 0 0 0 0 0 0 0 0
0 0 0 0 0 0 0 0 0 0 0 0 0 0 0 0 0 0 0 0 0 0 0 1 1 2 3 3 4 5 6 6 5 4 4 4 4 3 2 1 0 0 0 0 0 0 0 0 0
0 0 0 0 0 0 0 0 0 0 0 0 0 0 0 0 0 0 0 0 0 0 0 1 2 1 1 1 3 5 6 8 7 6 6 5 5 3 2 1 0 0 0 0 0 0 0 0 0
0 0 0 0 0 0 0 0 0 0 0 0 0 0 0 0 0 0 0 0 0 0 0 1 2 2 1 1 1 3 4 4 4 4 4 3 3 1 1 0 0 0 0 0 0 0 0 0 0
0 0 0 0 0 0 0 0 0 0 0 0 0 0 0 0 0 0 0 0 0 0 0 0 1 1 1 0 0 1 1 1 1 1 2 2 1 1 0 0 0 0 0 0 0 0 0 0 0
0 0 0 0 0 0 0 0 0 0 0 0 0 0 0 0 0 0 0 0 0 0 0 0 0 0 0 0 0 0 0 1 1 2 2 2 2 1 0 0 0 0 0 0 0 0 0 0 0
0 0 0 0 0 0 0 0 0 0 0 0 0 0 0 0 0 0 0 0 0 0 0 0 0 0 0 0 0 0 1 2 2 2 2 1 1 1 0 0 0 0 0 0 0 0 0 0 0
Wind_Speed
4 3 3 3 6 8 14 9 5 7 6 3 2 3 3 3 2 3 5 14 16 19 19 20 17 17 17 16 16 15 14 14 14 13 13 12 12 12 12 12 12 13 14 14 15 15 14 14 14
3 3 4 5 9 13 14 10 9 7 4 2 3 4 4 2 3 5 6 13 17 19 18 18 17 17 17 16 16 15 14 14 13 13 12 12 12 12 12 13 13 13 13 14 14 14 14 14 14
4 3 5 6 11 15 13 10 9 5 3 3 4 3 1 2 3 5 8 15 17 17 17 17 16 16 17 16 15 15 14 13 13 12 12 11 12 12 12 13 12 13 13 13 13 13 13 13 13
5 5 5 10 18 17 9 6 7 7 5 3 3 5 3 4 2 4 11 16 17 17 16 18 15 16 16 15 15 14 14 13 12 12 11 11 12 12 12 12 12 12 12 12 12 12 12 12 12
5 6 10 14 20 15 10 4 5 7 6 4 4 4 5 4 2 8 14 16 17 16 15 18 15 16 16 15 14 13 13 13 12 12 11 11 12 12 12 12 12 12 11 11 11 11 11 11 11
7 7 12 18 22 16 12 8 6 6 5 4 3 4 4 3 5 10 14 14 15 15 15 16 15 15 14 14 13 12 12 12 12 11 11 11 11 12 11 11 11 11 11 11 10 10 10 10 10
9 11 18 21 20 17 13 10 9 7 5 3 1 3 5 5 7 10 12 13 14 14 14 15 16 15 14 12 12 12 11 11 10 9 9 10 11 11 11 10 10 10 10 9 9 9 9 9 9
7 8 19 20 20 18 13 10 8 8 5 1 1 2 5 6 9 10 11 11 12 13 13 13 14 14 14 13 11 11 11 10 9 8 8 9 10 10 9 8 8 8 8 8 8 8 8 8 8
7 10 17 20 18 16 12 11 8 4 4 3 1 3 5 11 11 11 10 10 11 12 12 12 13 12 12 12 12 11 11 9 10 9 10 9 9 9 8 8 7 7 7 7 7 7 8 7 7
10 14 21 14 12 11 11 12 10 8 8 6 4 4 7 11 12 12 12 13 14 14 13 12 12 12 11 9 10 9 8 9 8 8 10 7 6 5 5 9 6 6 6 6 6 7 7 5 4
11 16 14 8 7 8 10 10 10 11 11 9 8 8 10 10 11 12 12 12 13 14 13 12 12 11 11 8 7 6 5 6 7 8 8 6 6 5 5 5 6 6 6 6 6 6 4 3 2
10 11 10 8 6 7 9 9 11 13 10 5 6 8 11 11 11 12 12 12 12 13 14 13 12 11 11 9 7 6 5 5 5 7 8 6 4 5 5 4 5 5 4 4 4 3 4 4 4
12 9 8 7 5 6 7 10 10 11 7 5 6 9 10 10 10 10 11 11 12 12 13 13 12 12 11 9 7 6 6 6 6 6 7 7 5 6 5 4 4 4 4 4 4 4 4 4 4
9 9 9 7 7 5 7 8 10 10 7 8 9 10 11 11 11 10 11 12 13 13 13 12 13 12 11 9 8 7 7 6 6 6 7 8 6 5 5 5 5 4 4 4 4 5 4 4 4
7 9 9 9 9 6 7 12 14 9 8 10 11 11 10 10 10 11 11 12 12 13 13 12 12 12 12 11 10 7 7 7 6 6 8 8 7 6 5 5 5 5 5 5 4 5 4 4 4
7 9 11 10 10 8 11 17 13 8 10 12 12 11 11 10 11 10 10 10 11 11 12 12 9 11 12 10 9 7 7 7 6 6 7 9 9 8 6 5 5 6 5 5 5 5 5 5 5
8 11 13 10 11 10 12 13 8 7 10 13 13 12 11 11 10 9 9 10 10 11 12 12 12 12 11 10 8 7 7 7 6 6 6 8 9 9 7 6 6 6 5 5 5 5 5 5 6
10 10 12 12 10 12 15 13 7 6 9 12 12 12 12 12 11 8 7 8 8 9 11 11 12 11 10 8 6 5 6 6 5 6 6 8 8 9 8 6 8 7 6 6 6 7 6 6 5
5 9 10 8 7 11 15 15 11 8 9 11 12 12 12 12 9 7 6 6 7 8 10 11 11 11 9 7 7 6 6 6 6 5 7 8 8 9 8 6 7 7 7 8 8 7 7 6 5
5 8 9 5 6 9 11 14 13 12 12 12 12 12 12 11 10 8 6 6 7 8 9 10 10 10 10 8 7 5 5 5 5 5 6 8 8 8 7 8 7 7 7 8 8 8 5 5 5
8 9 9 7 4 5 7 12 16 15 14 13 13 12 12 12 12 10 8 7 6 7 8 8 9 9 9 9 5 4 3 3 4 6 6 7 8 8 8 9 8 8 8 7 9 9 9 7 6
7 7 7 7 7 5 9 9 14 15 16 17 16 14 13 12 11 10 8 8 7 6 6 7 7 8 8 8 8 8 7 7 7 5 5 6 7 7 7 8 8 8 7 8 8 8 8 8 7
3 4 7 7 6 4 8 8 8 10 16 19 18 17 15 13 12 11 9 8 6 5 5 5 6 7 7 8 9 9 8 6 4 5 6 6 6 6 6 7 7 7 7 8 8 7 8 7 7
3 5 5 4 3 7 11 11 8 9 14 15 15 15 14 12 12 10 8 6 5 5 5 5 6 6 6 8 8 9 9 8 7 7 6 5 4 4 6 6 6 6 6 7 7 7 8 7 8
6 6 5 6 7 7 7 10 9 5 7 10 10 11 10 10 10 10 9 8 7 6 6 6 7 6 6 7 7 7 8 8 9 7 7 6 4 4 5 5 5 5 5 6 6 6 6 7 7
7 6 4 5 6 4 7 10 6 2 4 6 7 7 7 9 9 9 8 7 7 7 7 7 7 6 6 6 5 5 5 4 4 5 4 4 3 3 3 4 4 5 5 5 5 4 5 5 6
6 5 3 2 0 3 6 6 7 4 5 6 6 6 7 7 7 7 7 7 6 7 7 7 7 6 5 5 5 4 4 3 3 3 3 2 2 2 3 3 4 4 4 4 4 4 4 4 3
3 3 3 4 4 5 5 7 5 5 5 4 4 4 4 5 6 6 6 6 6 6 6 6 6 6 5 4 4 3 3 2 2 2 2 2 2 2 2 2 3 2 2 3 3 3 2 3 2
6 5 4 3 3 3 4 3 1 2 2 3 2 2 3 4 4 5 5 6 7 7 6 6 5 5 5 4 4 4 3 3 3 2 2 1 1 1 2 1 1 1 1 1 2 2 2 2 2
6 7 7 4 4 4 3 0 2 2 2 2 2 1 2 3 4 5 6 7 7 7 6 6 5 5 4 4 4 3 3 3 3 2 2 1 1 1 1 1 1 1 1 1 2 2 2 2 2
Wind_Direction
250 251 234 219 214 221 223 205 202 183 188 186 203 227 225 203 208 75 92 156 148 151 151 152 150 149 145 141 138 135 133 131 129 127 124 121 117 111 107 104 100 99 99 96 96 93 94 93 92
231 212 207 215 224 215 212 204 198 187 151 163 196 216 213 177 42 84 142 154 153 152 153 156 149 150 146 143 141 138 136 133 131 129 126 122 117 113 109 105 101 99 98 96 95 94 93 93 92
197 219 207 206 222 222 207 196 196 170 162 188 176 198 229 72 81 124 149 157 156 153 156 148 150 150 146 145 144 141 138 135 133 130 128 124 119 115 111 107 104 103 101 99 98 96 94 92 91
188 185 203 220 218 221 219 181 185 177 172 181 189 158 121 46 24 125 149 160 157 155 154 147 152 149 146 145 145 143 142 138 135 133 132 129 123 117 113 111 108 107 106 103 102 100 96 94 92
204 195 202 217 220 214 215 202 185 187 171 163 190 159 117 52 56 139 153 160 158 155 153 152 152 148 147 147 147 145 143 141 139 137 137 133 126 120 117 117 116 114 112 108 105 103 99 95 94
189 203 207 211 212 210 208 209 206 193 169 158 177 155 90 72 123 143 152 159 157 154 154 153 149 147 148 148 147 146 143 143 144 143 143 139 131 126 124 124 123 122 119 115 110 107 104 99 96
204 205 214 212 211 207 204 203 216 201 186 160 180 153 109 107 129 143 150 157 156 157 157 157 159 154 148 147 146 144 142 142 145 144 139 136 132 131 130 129 128 127 123 118 114 111 109 105 102
220 216 220 217 214 210 199 199 216 220 204 143 248 174 128 129 139 141 146 156 159 163 164 162 164 164 162 157 146 142 141 141 140 135 127 126 131 133 133 140 128 125 124 121 118 116 113 108 107
206 216 216 212 215 211 197 201 203 222 197 178 119 34 99 134 143 144 148 159 166 170 170 168 167 167 166 162 151 150 144 140 144 141 135 150 159 153 154 133 125 125 125 127 127 122 116 117 117
201 218 220 218 223 216 201 207 195 193 200 192 165 110 130 148 157 160 165 169 175 176 176 174 173 169 168 160 161 164 162 160 171 160 163 173 164 152 143 126 130 126 126 131 127 126 143 189 158
204 222 219 210 216 222 206 208 205 209 214 212 196 161 152 164 171 174 177 178 181 180 179 180 177 174 171 165 167 166 165 164 171 169 171 170 163 156 162 158 154 159 165 166 149 174 187 199 184
206 219 212 198 196 212 209 210 214 219 224 217 199 169 168 178 183 184 184 185 184 184 185 183 181 178 178 172 172 172 171 171 173 175 177 176 174 179 178 181 172 177 184 180 193 205 193 206 208
211 203 201 201 186 203 207 210 219 222 223 210 185 179 186 191 193 193 192 189 188 190 191 187 187 186 181 176 173 182 181 182 178 178 186 187 186 189 185 190 189 196 194 194 204 213 207 219 224
202 203 200 204 203 209 214 217 219 220 215 202 194 197 201 201 199 197 197 196 195 194 194 191 192 192 189 184 183 187 187 185 184 185 193 194 196 196 193 198 199 205 208 210 214 219 221 229 237
196 195 198 207 209 206 212 224 221 217 215 212 209 208 211 213 207 208 205 205 202 198 196 195 194 196 195 194 189 189 189 190 190 191 197 199 202 201 202 207 206 210 213 215 221 222 234 240 244
189 199 203 200 204 204 211 225 215 214 218 220 216 216 214 216 215 216 211 209 208 202 199 196 193 197 197 196 192 192 193 193 195 195 197 203 206 206 206 209 214 214 213 216 219 226 231 234 241
191 201 202 193 200 201 213 231 220 213 221 222 217 218 218 215 216 217 214 212 210 205 202 198 196 198 197 196 196 196 194 198 199 198 200 205 208 207 210 215 218 213 215 220 221 230 235 242 246
188 196 198 199 190 205 215 225 221 217 223 224 219 217 219 218 216 212 211 211 209 208 206 203 199 200 196 192 191 194 199 201 203 202 205 206 208 208 212 216 221 216 216 219 219 226 231 245 254
206 200 198 199 190 207 221 227 228 226 228 225 221 218 218 220 214 205 201 199 196 200 204 204 201 199 190 185 188 193 201 200 202 206 210 208 209 207 211 216 220 214 219 223 225 226 232 235 239
209 203 193 182 195 214 227 234 233 233 234 233 229 224 220 215 211 205 198 193 191 192 200 202 202 196 192 192 192 197 198 204 207 203 212 212 212 209 209 216 218 214 221 226 226 220 227 230 217
205 208 194 179 166 216 226 237 230 229 232 234 234 234 230 222 218 210 202 196 191 191 196 199 197 192 192 192 186 175 180 185 197 207 210 214 212 212 213 220 223 222 223 226 224 218 222 230 221
202 206 199 187 192 200 209 234 222 220 224 226 227 225 227 223 221 216 210 204 196 193 190 199 194 191 191 190 192 196 202 210 211 206 208 210 213 216 219 223 225 226 225 231 230 224 223 231 234
193 183 188 192 207 224 211 236 230 206 224 225 225 224 224 224 222 217 213 209 203 189 187 193 191 192 189 193 198 204 213 219 211 204 209 211 210 215 219 224 225 229 229 233 234 230 228 228 235
156 144 142 169 206 231 212 222 239 209 222 222 221 222 224 224 223 218 212 204 200 185 181 188 186 189 191 194 200 206 211 211 208 209 211 212 210 212 218 223 227 232 232 234 234 233 231 231 235
196 170 164 182 203 225 186 216 244 230 230 233 230 225 223 220 218 212 206 201 196 188 183 185 184 185 188 193 201 209 216 217 217 216 216 215 213 213 218 220 226 231 236 238 237 236 236 233 233
197 216 224 204 196 179 184 225 237 249 254 251 248 244 236 224 217 212 205 200 193 186 181 178 181 179 180 187 192 199 206 213 218 219 219 217 217 215 218 223 229 235 238 237 234 234 235 235 235
180 208 275 310 189 202 206 237 260 233 232 233 233 230 226 220 214 208 196 189 184 179 178 174 171 168 168 172 175 177 183 190 193 197 206 211 209 209 213 217 226 232 239 241 236 232 234 231 235
220 173 190 209 209 211 210 230 221 194 206 215 223 223 220 213 205 195 182 172 166 164 162 159 161 158 154 154 149 148 148 150 159 171 181 188 186 195 209 215 221 224 231 233 225 223 226 212 209
179 184 211 218 264 254 212 192 71 252 250 244 237 232 218 199 188 179 167 160 155 154 156 152 152 149 147 146 143 142 136 136 142 144 150 160 163 181 196 195 196 198 203 208 204 199 197 190 173
221 212 203 216 212 247 260 187 65 294 296 269 249 228 195 178 171 165 159 158 158 158 157 155 156 152 148 146 146 139 134 134 135 129 119 122 130 123 126 137 146 131 132 149 171 158 154 161 155